[[{"header":{"parameterUnit":"m.s-1","parameterCategory":1,"la1":30.2991,"la2":30.254,"lo1":-89.0895,"lo2":-89.0444,"dy":0.0017,"dx":0.0017,"nx":28,"ny":28,"refTime":"2025-02-24T09:00:00:Z","depth":0,"parameterNumber":2,"parameterNumberName":"U-component_of_WINDS"},"data":[0,0,0,0,0,0,0,0,0,0,0,0,0,0,0,0,0,0,0,0,0,0,0,0,0,0,0,0,0,0,0,0,0,0,0,0,0,0,0,0,0,0,0,0,0,0,0,0,0,0,0,0,0,0,0,0,0,0,2.921,2.921,0,2.9267,2.9268,2.9269,2.9197,2.9194,2.9192,2.9189,2.9249,2.9253,2.9257,0,0,0,0,0,0,0,0,0,0,0,0,0,2.9038,2.9042,2.9209,2.921,2.9211,2.9267,2.9268,2.9269,2.9197,2.9194,2.9191,2.9188,2.9248,2.9252,2.9257,0,0,0,0,0,0,0,0,0,0,0,0,0,2.9106,2.9043,2.9209,2.9182,2.918,2.9267,2.9268,2.9269,2.9198,2.9194,2.919,2.9186,2.9246,2.9252,2.9258,2.9375,0,0,2.9276,2.9279,0,0,0,0,0,0,0,0,2.9102,2.9112,2.9185,2.9184,2.9182,2.9221,2.923,2.9304,2.9199,2.9191,2.9189,2.9184,2.9243,2.9249,2.9268,2.9377,2.938,2.9277,2.9281,2.9283,2.9285,0,0,0,0,0,0,0,2.9098,2.911,2.9232,2.9186,2.9185,2.9167,2.9173,2.9243,2.9239,2.9192,2.9187,2.9194,2.9241,2.9263,2.9269,2.9381,2.9277,2.9282,2.9286,2.9288,2.959,2.9595,0,0,0,0,0,0,2.9096,2.9106,2.923,2.9234,2.9132,2.9174,2.9179,2.9212,2.9238,2.9238,2.9198,2.9191,2.9254,2.9262,2.9271,2.9411,2.9283,2.9289,2.9292,2.9586,2.9591,2.9596,0,0,0,0,0,0,2.9093,2.9108,2.9228,2.9169,2.9183,2.9181,2.9218,2.9216,2.9237,2.9242,2.9241,2.9221,2.9252,2.9263,2.935,2.9412,2.9292,2.9297,2.9581,2.9588,2.9594,2.9691,0,0,0,0,0,0,2.9088,2.9107,2.9151,2.917,2.9186,2.9306,2.9222,2.922,2.9248,2.9239,2.9263,2.9264,2.9249,2.9341,2.9356,2.9418,2.9302,2.9575,2.9584,2.9592,2.9682,2.97,2.9716,0,0,0,0,0,2.9082,2.9176,2.9154,2.9169,2.9241,2.931,2.9319,2.93,2.9253,2.9298,2.9301,2.9263,2.9403,2.9351,2.9367,2.9432,2.9571,2.9582,2.9591,2.9675,2.9697,2.9715,0,0,0,0,0,0,2.9164,2.9178,2.9153,2.9256,2.9282,2.9297,2.9353,2.9324,2.9364,2.9354,2.933,2.9336,2.9429,2.9439,2.9381,2.9547,2.9479,2.9493,2.9538,2.9558,2.9575,2.9571,2.9307,0,0,0,0,0,2.9194,2.9248,2.9257,2.9347,2.9361,2.9355,2.9384,2.9368,2.9394,2.9405,2.9414,2.9442,2.9492,2.9525,2.9571,2.9683,2.9688,2.9736,2.9752,2.9766,2.9778,2.984,2.9862,2.9629,2.9628,2.9628,0,0,2.9256,2.927,2.9306,2.9364,2.9382,2.9439,2.9365,2.9428,2.9471,2.9414,2.9498,2.9506,2.9535,2.9635,2.968,2.9646,2.9844,2.9778,2.9789,2.9794,2.9852,2.9875,2.9894,2.9635,2.9634,2.9633,0,0,2.9399,2.9415,2.9492,2.9513,2.9542,2.9537,2.9556,2.9576,2.9579,2.9663,2.9622,2.9672,2.9759,2.9781,2.9804,2.9958,2.9925,2.9973,3.0061,3.0121,3.0139,3.0156,3.0212,3.0233,2.9985,2.9986,2.9986,0,2.9474,2.9558,2.9536,2.9603,2.963,2.9582,2.9661,2.9681,2.9724,2.9744,2.9705,2.9814,2.983,2.9936,2.9974,2.9993,3.0015,2.9971,3.0138,3.0154,3.0169,3.0223,3.0244,2.9992,2.9991,2.999,2.999,0,2.9649,2.9708,2.9767,2.981,2.9844,2.9916,2.9906,2.9943,2.9924,2.9924,3.001,3.0027,3.0077,3.0101,3.0082,3.0205,3.0183,3.0142,3.0074,3.0198,3.0248,3.0268,3.0,2.9998,2.9996,2.9995,0,0,2.9846,2.9876,2.9898,2.9918,2.9947,2.9993,3.0063,3.0112,3.0145,3.0176,3.0236,3.0311,3.0274,3.03,3.0283,3.0336,3.0459,3.0288,3.0289,3.0321,3.0598,3.063,3.0654,3.0437,3.0441,3.0444,3.0596,0,2.9991,3.0113,3.0096,3.0215,3.027,3.0225,3.0287,3.0312,3.0314,3.0362,3.0363,3.0418,3.0363,3.0379,3.0429,3.0434,3.0515,3.0422,3.0494,3.0496,3.049,3.068,3.0714,3.0857,3.0615,3.0618,3.0621,0,3.0176,3.0215,3.034,3.0362,3.0384,3.044,3.0484,3.053,3.0558,3.0556,3.0586,3.056,3.0632,3.0561,3.0661,3.0599,3.0626,3.0633,3.0638,3.0646,3.0567,3.0694,3.0901,3.0924,3.0651,3.0649,3.0646,0,3.031,3.0393,3.0479,3.0497,3.0524,3.0565,3.0578,3.0601,3.0633,3.0671,3.0691,3.0738,3.0764,3.08,3.0789,3.0738,3.0892,3.0819,3.0893,3.0894,3.0928,3.0927,3.1145,3.0944,3.0943,3.0943,3.0943,0,3.0475,3.0554,3.054,3.0593,3.0679,3.0659,3.0745,3.0753,3.0775,3.0829,3.0792,3.0844,3.0824,3.0875,3.0866,3.0951,3.0962,3.0963,3.0961,3.0968,3.0968,3.0987,3.0978,3.0949,3.0947,3.0946,3.0945,0,3.064,3.0633,3.0724,3.0743,3.0749,3.0813,3.0828,3.0878,3.0877,3.0947,3.0962,3.0961,3.1019,3.101,3.1074,3.1068,3.1175,3.1159,3.1166,3.1163,3.1237,3.1231,3.1477,3.1509,3.1286,3.1288,3.1289,0,3.0747,3.0806,3.0831,3.0865,3.0881,3.0936,3.0968,3.095,3.0984,3.1021,3.1067,3.1122,3.1165,3.126,3.1265,3.1314,3.13,3.1383,3.1308,3.1314,3.1304,3.1301,3.1308,3.1399,3.1401,3.1403,3.1405,0,3.0937,3.0932,3.0979,3.1026,3.1065,3.1101,3.1133,3.1162,3.1148,3.1189,3.1248,3.1281,3.1347,3.1403,3.1449,3.1463,3.1433,3.1428,3.1448,3.1458,3.146,3.1462,3.1209,3.1423,3.1421,3.142,3.1419,3.1418,3.1078,3.1129,3.1155,3.1209,3.1232,3.1263,3.1312,3.1317,3.1366,3.1419,3.1405,3.1473,3.15,3.1559,3.1578,3.1631,3.1601,3.1629,3.1637,3.1644,3.1654,3.145,3.1639,3.1638,3.1638,3.1638,3.1637,0,3.1268,3.1283,3.1333,3.138,3.1423,3.139,3.1424,3.1462,3.1522,3.155,3.1593,3.1662,3.1716,3.1726,3.1777,3.1818,3.1805,3.1832,3.183,3.1834,3.1677,3.1656,3.1841,3.1841,3.1841,3.1841,3.1841,3.1841,3.1373,3.1459,3.1456,3.1553,3.1567,3.1633,3.1656,3.1685,3.1707,3.1786,3.183,3.1836,3.1857,3.191,3.1958,3.196,3.1981,3.2014,3.2011,3.1865,3.1845,3.1825,3.1805,3.2019,3.2019,3.2163,3.2164,3.2165]},{"header":{"parameterUnit":"m.s-1","parameterCategory":1,"la1":30.2991,"la2":30.254,"lo1":-89.0895,"lo2":-89.0444,"dy":0.0017,"dx":0.0017,"nx":28,"ny":28,"refTime":"2025-02-24T09:00:00:Z","depth":0,"parameterNumber":3,"parameterNumberName":"V-component_of_WINDS"},"data":[0,0,0,0,0,0,0,0,0,0,0,0,0,0,0,0,0,0,0,0,0,0,0,0,0,0,0,0,0,0,0,0,0,0,0,0,0,0,0,0,0,0,0,0,0,0,0,0,0,0,0,0,0,0,0,0,0,0,0.3453,0.3454,0,0.3525,0.3525,0.3526,0.3523,0.3522,0.3521,0.352,0.3595,0.3598,0.3601,0,0,0,0,0,0,0,0,0,0,0,0,0,0.3314,0.3317,0.3453,0.3454,0.3455,0.3525,0.3526,0.3526,0.3523,0.3522,0.352,0.3519,0.3594,0.3598,0.3601,0,0,0,0,0,0,0,0,0,0,0,0,0,0.3379,0.3317,0.3453,0.3461,0.3463,0.3524,0.3526,0.3527,0.3523,0.3522,0.352,0.3519,0.3593,0.3597,0.3602,0.366,0,0,0.3615,0.3617,0,0,0,0,0,0,0,0,0.3375,0.3384,0.3459,0.3461,0.3463,0.3513,0.3504,0.3572,0.3524,0.35,0.352,0.3518,0.3569,0.3575,0.3592,0.3664,0.3667,0.3616,0.3618,0.362,0.3621,0,0,0,0,0,0,0,0.3371,0.3381,0.3481,0.346,0.3462,0.3462,0.3469,0.3517,0.3543,0.3502,0.3502,0.3511,0.357,0.3588,0.3594,0.3668,0.3615,0.3619,0.3622,0.3624,0.3789,0.3791,0,0,0,0,0,0,0.3364,0.3377,0.3479,0.3484,0.3414,0.3466,0.3474,0.3498,0.3542,0.3547,0.3512,0.351,0.3581,0.3589,0.3597,0.3667,0.362,0.3624,0.3627,0.3788,0.379,0.3792,0,0,0,0,0,0,0.3361,0.3373,0.3476,0.343,0.3443,0.347,0.3497,0.3501,0.3519,0.3549,0.3554,0.3526,0.358,0.3591,0.3644,0.367,0.3626,0.363,0.3786,0.3788,0.3791,0.3809,0,0,0,0,0,0,0.3357,0.3372,0.3395,0.3431,0.3446,0.3522,0.3499,0.3503,0.3526,0.3525,0.3564,0.3568,0.358,0.3637,0.3648,0.3675,0.3634,0.3783,0.3787,0.379,0.3807,0.3812,0.3817,0,0,0,0,0,0.3352,0.3398,0.3396,0.3408,0.3474,0.3524,0.3532,0.3544,0.3529,0.3551,0.357,0.3567,0.3665,0.3643,0.3655,0.3684,0.3782,0.3786,0.379,0.3804,0.3811,0.3817,0,0,0,0,0,0,0.3365,0.3403,0.3401,0.3459,0.3488,0.3523,0.3552,0.3551,0.3585,0.3583,0.3596,0.3605,0.3658,0.3676,0.3651,0.3742,0.3722,0.3728,0.3728,0.3735,0.3741,0.3735,0.3638,0,0,0,0,0,0.3374,0.3411,0.3442,0.3491,0.3505,0.3526,0.3548,0.3554,0.3585,0.3597,0.362,0.3651,0.3688,0.3713,0.3749,0.3809,0.3817,0.3835,0.384,0.3844,0.385,0.3882,0.389,0.3804,0.3804,0.3804,0,0,0.3395,0.342,0.3442,0.3494,0.3517,0.3554,0.3536,0.3577,0.3605,0.3604,0.3655,0.3673,0.3708,0.3764,0.3791,0.3781,0.3875,0.3849,0.3852,0.3856,0.3887,0.3895,0.3902,0.3807,0.3806,0.3806,0,0,0.3451,0.3473,0.3516,0.3539,0.3574,0.3587,0.3597,0.3632,0.3643,0.3695,0.3694,0.3728,0.3792,0.3817,0.3837,0.3901,0.3899,0.3912,0.394,0.3972,0.3978,0.3984,0.4007,0.4015,0.3918,0.3918,0.3918,0,0.3472,0.3528,0.3538,0.3579,0.3601,0.36,0.3644,0.3666,0.3711,0.3726,0.3715,0.3795,0.3818,0.388,0.3895,0.3912,0.3924,0.3908,0.3976,0.3983,0.3988,0.401,0.4018,0.3919,0.3919,0.3919,0.3919,0,0.3552,0.3591,0.3621,0.3663,0.3689,0.3731,0.3748,0.3773,0.3776,0.3791,0.3843,0.387,0.3912,0.3927,0.3931,0.3989,0.3982,0.3973,0.3953,0.3998,0.4018,0.4026,0.3921,0.3921,0.392,0.392,0,0,0.362,0.3665,0.3677,0.3695,0.3733,0.3763,0.3804,0.3844,0.3865,0.3896,0.3931,0.3984,0.3976,0.3999,0.4006,0.4034,0.4082,0.4022,0.4023,0.4032,0.4146,0.4153,0.4162,0.408,0.4082,0.4083,0.4143,0,0.3679,0.3752,0.3762,0.3827,0.3862,0.3861,0.3897,0.3924,0.3938,0.3971,0.3987,0.4024,0.4011,0.4025,0.4052,0.407,0.4105,0.4066,0.4113,0.4114,0.4105,0.4173,0.418,0.4236,0.4151,0.4153,0.4154,0,0.3759,0.3791,0.3859,0.389,0.3906,0.3938,0.3974,0.4005,0.4035,0.4044,0.4069,0.4072,0.4115,0.4092,0.4151,0.4124,0.4144,0.4155,0.4158,0.4163,0.4137,0.418,0.4254,0.4263,0.4167,0.4165,0.4165,0,0.3801,0.3861,0.3909,0.3925,0.3963,0.3986,0.4003,0.4031,0.4054,0.4086,0.41,0.4137,0.4157,0.4185,0.4198,0.418,0.4256,0.4234,0.4264,0.4263,0.428,0.4279,0.4359,0.4293,0.4292,0.4292,0.4292,0,0.3867,0.3909,0.3928,0.3958,0.4004,0.4015,0.4061,0.4077,0.4102,0.4135,0.4136,0.4166,0.4181,0.4214,0.4224,0.4271,0.428,0.4288,0.429,0.4288,0.4287,0.4302,0.4298,0.4295,0.4294,0.4294,0.4293,0,0.3923,0.3937,0.399,0.4021,0.4029,0.4062,0.4089,0.4117,0.4131,0.4172,0.4182,0.4204,0.4242,0.4257,0.4305,0.4311,0.4365,0.4364,0.4355,0.4356,0.4385,0.4382,0.4477,0.4489,0.4414,0.4415,0.4416,0,0.3964,0.3996,0.403,0.4051,0.4069,0.4104,0.4126,0.4138,0.4161,0.4197,0.4221,0.426,0.4291,0.4353,0.4372,0.4408,0.4408,0.4439,0.4414,0.441,0.4409,0.4407,0.441,0.4444,0.4445,0.4445,0.4446,0,0.4036,0.4041,0.4074,0.4108,0.4135,0.4164,0.4191,0.4209,0.4224,0.425,0.4289,0.4313,0.4361,0.4399,0.4436,0.4453,0.4452,0.4453,0.4462,0.446,0.4454,0.4457,0.4368,0.4451,0.4451,0.445,0.445,0.445,0.4086,0.4113,0.4141,0.4177,0.4198,0.4224,0.4252,0.4268,0.4301,0.434,0.4344,0.4386,0.4414,0.4463,0.4482,0.4515,0.4507,0.452,0.4523,0.4526,0.4528,0.4448,0.4522,0.4521,0.4521,0.4521,0.4521,0,0.4157,0.4175,0.4207,0.4245,0.4273,0.4269,0.4298,0.4322,0.4359,0.4385,0.4415,0.4459,0.4496,0.4518,0.4554,0.4576,0.4576,0.4585,0.4584,0.4588,0.4533,0.4522,0.4584,0.4584,0.4584,0.4584,0.4584,0.4584,0.4198,0.4244,0.4253,0.431,0.4327,0.4367,0.4385,0.4408,0.4428,0.4478,0.4507,0.4521,0.4545,0.4583,0.4616,0.4622,0.4635,0.4644,0.4649,0.4598,0.4592,0.4585,0.4575,0.4647,0.4647,0.4701,0.4701,0.4702]}]]